sat.trackr.live / text

‹ back to catalog

STARLINK-3881

NORAD 52472 · 2022-049X

PAYLOAD ACTIVE UNKNOWN

§ Identity

Operator
Country
US
Launch date
2022-05-06
Launch site
AFETR
Launch vehicle
Mass (kg)
RCS (m²)

Purposes: comms

External: N2YO · Heavens-Above · Gunter

§ Orbital elements

Epoch: 2026-05-25T01:55:36.892704Z

Period
95.44 min
Inclination
53.2144°
Eccentricity
0.0001858
Mean motion
15.08839645 rev/d
Perigee alt
538.5 km
Apogee alt
541.0 km
Semi-major
6,917.9 km
B*
2.1623e-6
RAAN
76.1893°
Arg perigee
57.5638°
Mean anomaly
302.5534°
Rev number
22,378

§ Raw data

STARLINK-38811 52472U 22049X   26145.08028811 -.00000254  00000+0  21623-5 0  99932 52472  53.2144  76.1893 0001858  57.5638 302.5534 15.08839645223784

JSON: /api/v1/satellites/52472 · /tle

For live sub-satellite position, see the globe view (requires WebGL).

§ Visibility from observer

Set your observer location to see the next 7 days of passes ≥ 10°. The values pass through the URL so the page stays shareable.

No JS? Fill the form by hand. The geolocation button needs JavaScript.